This demonstration page uses our WeatherBlox Daily Observations layout. Learn more.

Left ArrowRight Arrow

41.55636, -103.73856

Hourly Observations for February 6, 2015

Temp ( °F °C ) Dew Point ( °F °C ) Humidity (%) Winds ( mph kmh ) Pressure ( in mb ) Visibility ( mi km ) Precip ( " mm )
12:53 am 00:53 Clear 40 4.4 26 -3.3 58 58 WSW 6 9 29.98 1015 10 16.0934 0 0
1:53 am 01:53 Clear 43 6.1 27 -2.8 53 53 WNW 9 15 29.97 1015 10 16.0934 0 0
2:53 am 02:53 Clear 49 9.4 27 -2.8 43 43 WNW 13 20 29.95 1014 10 16.0934 0 0
3:53 am 03:53 Clear 42 5.6 29 -1.7 60 60 NW 9 15 29.97 1015 10 16.0934 0 0
4:53 am 04:53 Clear 43 6.1 29 -1.7 58 58 NW 10 17 29.98 1015 10 16.0934 0 0
5:53 am 05:53 Clear 41 5 28 -2.2 60 60 SW 6 9 29.98 1015 10 16.0934 0 0
6:53 am 06:53 Clear 34 1.1 26 -3.3 73 73 ESE 7 11 30.04 1017 10 16.0934 0 0
7:53 am 07:53 Sunny 32 0 25 -3.9 75 75 N 5 7 30.07 1018 10 16.0934 0 0
8:53 am 08:53 Sunny 48 8.9 29 -1.7 48 48 Calm 30.02 1017 10 16.0934 0 0
9:53 am 09:53 Sunny 49 9.4 31 -0.6 50 50 N 3 6 30.01 1016 10 16.0934 0 0
10:53 am 10:53 Sunny 54 12.2 30 -1.1 40 40 NW 5 7 29.99 1016 10 16.0934 0 0
11:53 am 11:53 Sunny 58 14.4 31 -0.6 36 36 NNW 6 9 29.94 1014 10 16.0934 0 0
12:53 pm 12:53 Sunny 63 17.2 31 -0.6 30 30 NNW 7 11 29.88 1012 10 16.0934 0 0
1:53 pm 13:53 Sunny 68 20 30 -1.1 24 24 W 9 15 29.82 1010 10 16.0934 0 0
2:53 pm 14:53 Sunny 70 21.1 29 -1.7 22 22 W 13 20 29.78 1008 10 16.0934 0 0
3:53 pm 15:53 Sunny 69 20.6 23 -5 17 17 W 18 30 29.77 1008 10 16.0934 0 0
4:53 pm 16:53 Sunny 63 17.2 31 -0.6 30 30 W 3 6 29.79 1009 10 16.0934 0 0
5:53 pm 17:53 Clear 61 16.1 26 -3.3 26 26 W 3 6 29.8 1009 10 16.0934 0 0
6:53 pm 18:53 Clear 50 10 26 -3.3 39 39 WNW 7 11 29.84 1011 10 16.0934 0 0
7:53 pm 19:53 Clear 47 8.3 27 -2.8 46 46 WNW 6 9 29.85 1011 10 16.0934 0 0
8:53 pm 20:53 Clear 48 8.9 24 -4.4 39 39 W 6 9 29.8 1009 10 16.0934 0 0
9:53 pm 21:53 Clear 61 16.1 19 -7.2 20 20 W 13 20 29.75 1007 10 16.0934 0 0
10:53 pm 22:53 Clear 43 6.1 26 -3.3 51 51 NNW 8 13 29.77 1008 10 16.0934 0 0
11:53 pm 23:53 Clear 42 5.6 26 -3.3 53 53 NW 10 17 29.76 1008 10 16.0934 0 0

Powered by AerisWeather